Total_Precipitation_Accumulation
0.01 0.04 0.04 0.05 0.09 0.11 0.11 0.19 0.25 0.27 0.27 0.32 0.44 0.60 0.80 0.88 1.06 1.20 1.25 1.31 1.42 1.58 2.01 2.41 3.05 4.03 4.43 5.08 5.05 4.66 4.29 4.10 4.01 3.94 3.91 3.92 4.03 4.19 4.33 4.27 3.98 3.87 3.79 3.79
0.02 0.03 0.02 0.03 0.07 0.08 0.09 0.14 0.21 0.30 0.35 0.40 0.58 0.72 0.92 1.03 1.12 1.22 1.22 1.36 1.35 1.47 2.13 2.74 3.22 3.70 3.97 4.13 4.39 4.71 4.68 4.60 4.30 4.20 4.44 4.87 5.09 5.01 5.05 4.99 4.87 4.67 4.48 4.42
0.02 0.03 0.02 0.03 0.05 0.05 0.08 0.12 0.17 0.30 0.41 0.57 0.80 1.06 1.14 1.20 1.35 1.31 1.23 1.28 1.33 1.50 1.89 2.51 3.04 3.41 3.83 4.13 4.20 4.48 4.59 4.74 4.92 5.04 5.20 5.62 5.89 5.75 5.50 5.12 4.94 4.75 4.44 4.29
0.02 0.01 0.02 0.04 0.05 0.06 0.09 0.10 0.16 0.25 0.40 0.63 0.81 1.25 1.37 1.38 1.46 1.49 1.52 1.49 1.48 1.65 1.87 2.22 2.61 2.85 3.22 3.50 3.81 4.15 4.36 4.56 5.07 5.78 6.08 6.09 6.13 5.97 5.64 5.29 4.97 4.62 4.30 4.03
0.02 0.02 0.03 0.04 0.05 0.05 0.06 0.08 0.13 0.21 0.32 0.58 0.68 1.02 1.51 1.55 1.63 1.63 1.68 1.71 1.70 1.71 1.85 2.00 2.05 2.33 2.74 2.96 3.19 3.64 4.09 4.55 5.20 5.76 6.07 6.27 6.15 5.90 5.60 5.14 4.80 4.43 4.09 3.73
0.03 0.03 0.03 0.05 0.06 0.05 0.06 0.11 0.18 0.23 0.37 0.70 0.60 0.81 1.53 1.75 1.74 1.62 1.63 1.74 1.71 1.65 1.71 1.80 1.91 2.06 2.30 2.54 2.80 3.07 3.68 4.40 4.85 5.24 5.57 5.72 5.77 5.65 5.34 4.87 4.55 4.21 3.84 3.50
0.07 0.06 0.04 0.05 0.07 0.08 0.13 0.30 0.58 0.70 0.80 0.76 0.49 0.84 1.63 1.84 1.80 1.71 1.70 1.87 1.72 1.52 1.57 1.80 1.87 2.00 2.24 2.48 2.81 3.11 3.53 4.09 4.40 4.51 4.68 4.94 5.09 5.05 4.94 4.72 4.41 3.99 3.49 3.02
0.16 0.14 0.07 0.06 0.09 0.12 0.15 0.30 0.69 0.92 0.89 0.81 0.77 1.35 1.87 1.89 1.79 1.72 1.66 1.75 1.74 1.66 1.71 1.79 1.82 1.94 2.20 2.41 2.57 2.91 3.15 3.67 3.93 3.82 3.92 4.17 4.38 4.35 4.22 4.01 3.59 3.21 2.85 2.52
0.22 0.20 0.08 0.08 0.09 0.10 0.16 0.25 0.34 0.57 0.65 0.88 1.28 1.82 2.17 2.18 2.08 1.95 1.81 1.70 1.67 1.64 1.69 1.79 1.76 1.81 2.00 2.17 2.35 2.50 2.65 3.02 3.29 3.25 3.28 3.34 3.35 3.34 3.26 3.08 2.78 2.49 2.21 1.95
0.16 0.21 0.12 0.10 0.12 0.15 0.18 0.22 0.34 0.63 0.90 1.19 1.46 2.04 2.67 2.61 2.35 2.10 1.94 1.69 1.67 1.57 1.56 1.65 1.70 1.71 1.65 1.70 1.95 2.18 2.21 2.33 2.46 2.49 2.54 2.55 2.58 2.67 2.58 2.31 2.06 1.94 1.82 1.65
0.15 0.24 0.21 0.19 0.22 0.25 0.26 0.29 0.33 0.52 0.68 1.06 1.50 2.06 2.25 2.41 2.27 2.03 1.85 1.67 1.54 1.47 1.51 1.59 1.64 1.63 1.50 1.40 1.48 1.75 1.91 1.89 1.96 2.11 2.19 2.11 2.09 2.04 1.96 1.84 1.67 1.61 1.54 1.43
0.20 0.30 0.37 0.29 0.23 0.21 0.25 0.30 0.37 0.63 0.69 0.81 1.28 2.02 2.04 2.31 2.35 2.21 1.96 1.79 1.75 1.64 1.63 1.63 1.74 1.62 1.50 1.49 1.49 1.56 1.66 1.70 1.69 1.72 1.88 1.94 1.87 1.71 1.62 1.55 1.48 1.39 1.31 1.25
0.24 0.44 0.67 0.73 0.55 0.36 0.30 0.31 0.36 0.43 0.60 0.84 1.37 2.16 2.18 2.19 2.25 2.18 1.94 1.87 1.90 1.88 1.86 1.79 1.75 1.60 1.54 1.55 1.48 1.40 1.43 1.49 1.50 1.49 1.55 1.57 1.52 1.44 1.36 1.33 1.34 1.25 1.18 1.12
0.26 0.47 0.76 1.10 0.93 0.58 0.46 0.39 0.40 0.49 0.76 0.94 1.25 1.76 2.08 2.05 2.12 2.23 2.12 1.91 1.88 1.92 1.91 1.77 1.74 1.67 1.59 1.56 1.45 1.38 1.34 1.28 1.22 1.27 1.31 1.32 1.33 1.31 1.26 1.17 1.15 1.13 1.10 1.08
0.36 0.56 0.53 0.53 0.52 0.51 0.48 0.44 0.44 0.54 0.64 0.98 1.29 1.69 2.04 1.98 2.12 2.38 2.34 2.17 2.00 1.96 1.94 1.81 1.80 1.79 1.74 1.70 1.57 1.44 1.35 1.31 1.24 1.21 1.17 1.21 1.27 1.28 1.23 1.22 1.19 1.14 1.06 1.00
0.40 0.55 0.55 0.50 0.43 0.47 0.52 0.54 0.49 0.54 0.67 0.98 1.35 1.85 1.98 2.00 2.08 2.21 2.33 2.25 2.09 2.07 2.12 2.13 2.13 2.09 2.02 1.94 1.75 1.56 1.45 1.33 1.25 1.24 1.20 1.21 1.22 1.18 1.17 1.17 1.14 1.10 1.04 1.00
0.40 0.56 0.68 0.62 0.43 0.66 0.99 0.83 0.74 0.75 0.84 1.09 1.45 1.68 1.68 1.81 2.02 2.10 2.19 2.32 2.25 2.32 2.43 2.50 2.44 2.35 2.22 2.10 2.00 1.82 1.65 1.51 1.44 1.36 1.25 1.23 1.20 1.11 1.07 1.00 0.99 1.04 1.03 0.97
0.43 0.57 0.67 0.72 0.80 1.34 1.29 0.85 0.81 0.92 1.05 1.15 1.25 1.30 1.50 1.73 1.89 1.95 2.14 2.39 2.43 2.40 2.33 2.37 2.33 2.33 2.25 2.13 2.01 1.84 1.66 1.54 1.42 1.31 1.20 1.15 1.13 1.06 1.05 1.04 1.03 1.03 1.00 0.95
0.30 0.51 0.76 0.92 1.24 1.40 1.33 0.93 0.93 1.14 1.43 1.25 1.27 1.26 1.40 1.51 1.70 2.05 2.12 2.24 2.45 2.33 2.21 2.25 2.30 2.31 2.26 2.14 1.95 1.78 1.64 1.50 1.42 1.30 1.12 1.02 0.99 0.93 0.94 0.98 1.00 0.97 0.95 0.92
0.32 0.46 0.86 1.11 1.45 1.70 1.57 0.92 0.76 1.16 2.06 1.58 1.46 1.45 1.44 1.55 1.98 2.11 1.93 1.89 1.97 2.05 2.15 2.24 2.33 2.37 2.28 2.16 1.86 1.69 1.54 1.37 1.22 1.06 0.94 0.91 0.92 0.85 0.85 0.88 0.87 0.85 0.86 0.86
0.75 0.78 0.97 1.24 1.66 1.78 1.14 0.71 0.81 1.65 2.10 1.67 1.58 1.52 1.56 1.76 1.91 1.74 1.62 1.69 1.81 1.97 2.10 2.18 2.18 2.16 2.11 2.01 1.77 1.65 1.48 1.32 1.07 0.89 0.81 0.84 0.85 0.79 0.75 0.78 0.79 0.79 0.75 0.78
1.05 1.21 1.29 1.43 1.82 1.95 0.95 0.76 1.13 1.44 1.23 1.19 1.23 1.21 1.25 1.36 1.42 1.45 1.50 1.54 1.58 1.69 1.86 1.97 2.01 1.99 1.88 1.75 1.59 1.47 1.34 1.12 0.92 0.81 0.78 0.83 0.84 0.64 0.56 0.66 0.69 0.70 0.75 0.76
1.02 1.17 1.39 1.63 1.93 1.58 1.01 0.94 0.93 0.99 1.02 0.98 1.03 1.00 1.03 1.11 1.18 1.31 1.46 1.52 1.52 1.48 1.60 1.64 1.56 1.48 1.50 1.45 1.32 1.21 1.11 0.94 0.82 0.78 0.79 0.79 0.75 0.67 0.59 0.63 0.64 0.69 0.74 0.71
1.12 0.97 1.21 1.42 1.51 1.24 0.98 0.88 0.83 0.74 0.72 0.77 0.90 0.93 0.91 0.92 0.90 1.01 1.14 1.25 1.30 1.27 1.26 1.28 1.24 1.17 1.14 1.13 1.05 0.95 0.83 0.79 0.80 0.81 0.80 0.78 0.74 0.66 0.60 0.61 0.57 0.59 0.63 0.62
1.12 1.10 1.30 1.48 1.49 1.29 1.08 0.90 0.78 0.73 0.71 0.78 0.82 0.80 0.75 0.70 0.71 0.73 0.86 0.95 0.99 1.00 0.98 0.97 1.01 0.97 0.86 0.80 0.79 0.77 0.70 0.68 0.76 0.77 0.72 0.70 0.62 0.59 0.58 0.53 0.42 0.40 0.41 0.42
1.00 1.15 1.40 1.58 1.37 1.30 1.16 0.89 0.73 0.71 0.71 0.68 0.66 0.64 0.65 0.64 0.64 0.67 0.78 0.85 0.86 0.84 0.83 0.88 0.91 0.86 0.78 0.73 0.69 0.64 0.56 0.57 0.67 0.71 0.68 0.62 0.56 0.53 0.50 0.52 0.43 0.35 0.32 0.30